[keps] orb12299.amsat
Ray Hoad
ray.hoad at mypbmail.com
Thu Oct 25 18:00:14 PDT 2012
SB KEPS @ AMSAT $ORB12299.O
Orbital Elements 12299.OSCAR
HR AMSAT ORBITAL ELEMENTS FOR OSCAR SATELLITES
FROM WA5QGD FORT WORTH,TX October 25, 2012
BID: ORB12299.O
TO ALL RADIO AMATEURS BT
Satellite: AO-07
Catalog number: 07530
Epoch time: 12299.54746736
Element set: 514
Inclination: 101.4134 deg
RA of node: 291.7714 deg
Eccentricity: 0.0012079
Arg of perigee: 027.7617 deg
Mean anomaly: 332.4093 deg
Mean motion: 12.53592218 rev/day
Decay rate: -2.7e-07 rev/day^2
Epoch rev: 73638
Checksum: 301
Satellite: FO-29
Catalog number: 24278
Epoch time: 12298.81998031
Element set: 0978
Inclination: 098.5865 deg
RA of node: 022.5209 deg
Eccentricity: 0.0351193
Arg of perigee: 053.8328 deg
Mean anomaly: 309.4765 deg
Mean motion: 13.52990746 rev/day
Decay rate: 8.0e-08 rev/day^2
Epoch rev: 79948
Checksum: 368
Satellite: SO-33
Catalog number: 25509
Epoch time: 12299.43561064
Element set: 351
Inclination: 031.4362 deg
RA of node: 316.5578 deg
Eccentricity: 0.0352411
Arg of perigee: 263.1244 deg
Mean anomaly: 092.9201 deg
Mean motion: 14.28861893 rev/day
Decay rate: 1.137e-05 rev/day^2
Epoch rev: 73129
Checksum: 296
Satellite: RS-22
Catalog number: 27939
Epoch time: 12299.59928421
Element set: 844
Inclination: 097.8015 deg
RA of node: 133.6855 deg
Eccentricity: 0.0012530
Arg of perigee: 208.7698 deg
Mean anomaly: 151.2816 deg
Mean motion: 14.64189300 rev/day
Decay rate: 1.147e-05 rev/day^2
Epoch rev: 48496
Checksum: 338
Satellite: VO-52
Catalog number: 28650
Epoch time: 12298.59139670
Element set: 0243
Inclination: 097.5875 deg
RA of node: 323.1677 deg
Eccentricity: 0.0026061
Arg of perigee: 338.7535 deg
Mean anomaly: 021.2591 deg
Mean motion: 14.83298924 rev/day
Decay rate: 2.347e-05 rev/day^2
Epoch rev: 40415
Checksum: 327
Satellite: HO-68
Catalog number: 36122
Epoch time: 12299.72003090
Element set: 950
Inclination: 100.3452 deg
RA of node: 356.3392 deg
Eccentricity: 0.0007567
Arg of perigee: 167.6628 deg
Mean anomaly: 192.4671 deg
Mean motion: 13.16299290 rev/day
Decay rate: -4.4e-07 rev/day^2
Epoch rev: 13756
Checksum: 307
/EX
SB KEPS @ AMSAT $ORB12299.D
Orbital Elements 12299.MICROS
HR AMSAT ORBITAL ELEMENTS FOR THE MICROSATS
FROM WA5QGD FORT WORTH,TX October 25, 2012
BID: ORB12299.D
TO ALL RADIO AMATEURS BT
Satellite: UO-11
Catalog number: 14781
Epoch time: 12299.76148935
Element set: 9
Inclination: 097.9373 deg
RA of node: 358.0358 deg
Eccentricity: 0.0008059
Arg of perigee: 336.6123 deg
Mean anomaly: 023.4722 deg
Mean motion: 14.80621333 rev/day
Decay rate: 9.89e-06 rev/day^2
Epoch rev: 53924
Checksum: 324
Satellite: AO-16
Catalog number: 20439
Epoch time: 12298.90367285
Element set: 0608
Inclination: 098.4407 deg
RA of node: 238.7169 deg
Eccentricity: 0.0012541
Arg of perigee: 133.4336 deg
Mean anomaly: 226.7907 deg
Mean motion: 14.32099089 rev/day
Decay rate: 1.76e-06 rev/day^2
Epoch rev: 18856
Checksum: 335
Satellite: LO-19
Catalog number: 20442
Epoch time: 12299.88510601
Element set: 519
Inclination: 098.4110 deg
RA of node: 242.2351 deg
Eccentricity: 0.0012495
Arg of perigee: 120.6308 deg
Mean anomaly: 239.6106 deg
Mean motion: 14.32317127 rev/day
Decay rate: 3.23e-06 rev/day^2
Epoch rev: 18889
Checksum: 282
Satellite: AO-27
Catalog number: 22825
Epoch time: 12299.78739740
Element set: 227
Inclination: 098.5873 deg
RA of node: 240.6475 deg
Eccentricity: 0.0007624
Arg of perigee: 254.5995 deg
Mean anomaly: 105.4332 deg
Mean motion: 14.29501584 rev/day
Decay rate: 2.77e-06 rev/day^2
Epoch rev: 99513
Checksum: 343
Satellite: IO-26
Catalog number: 22826
Epoch time: 12298.85338972
Element set: 0994
Inclination: 098.5814 deg
RA of node: 240.0636 deg
Eccentricity: 0.0008023
Arg of perigee: 253.1280 deg
Mean anomaly: 106.9021 deg
Mean motion: 14.29778251 rev/day
Decay rate: 2.79e-06 rev/day^2
Epoch rev: 99513
Checksum: 327
Satellite: GO-32
Catalog number: 25397
Epoch time: 12298.46827903
Element set: 0907
Inclination: 098.3801 deg
RA of node: 270.9220 deg
Eccentricity: 0.0000346
Arg of perigee: 280.9703 deg
Mean anomaly: 079.1440 deg
Mean motion: 14.23301550 rev/day
Decay rate: 1.97e-06 rev/day^2
Epoch rev: 74241
Checksum: 295
Satellite: NO-44
Catalog number: 26931
Epoch time: 12299.84675468
Element set: 168
Inclination: 067.0510 deg
RA of node: 143.5776 deg
Eccentricity: 0.0005624
Arg of perigee: 248.9212 deg
Mean anomaly: 111.1265 deg
Mean motion: 14.29848602 rev/day
Decay rate: 2.90e-06 rev/day^2
Epoch rev: 57792
Checksum: 324
Satellite: SO-50
Catalog number: 27607
Epoch time: 12298.89006748
Element set: 897
Inclination: 064.5581 deg
RA of node: 260.2959 deg
Eccentricity: 0.0074053
Arg of perigee: 222.2476 deg
Mean anomaly: 137.2940 deg
Mean motion: 14.72596037 rev/day
Decay rate: 1.468e-05 rev/day^2
Epoch rev: 52906
Checksum: 341
Satellite: CO-55
Catalog number: 27844
Epoch time: 12298.61644158
Element set: 491
Inclination: 098.7038 deg
RA of node: 305.1253 deg
Eccentricity: 0.0009116
Arg of perigee: 205.9820 deg
Mean anomaly: 154.0902 deg
Mean motion: 14.21097344 rev/day
Decay rate: 3.69e-06 rev/day^2
Epoch rev: 48327
Checksum: 311
Satellite: CO-57
Catalog number: 27848
Epoch time: 12299.55855925
Element set: 441
Inclination: 098.7130 deg
RA of node: 305.4493 deg
Eccentricity: 0.0009078
Arg of perigee: 207.5437 deg
Mean anomaly: 152.5255 deg
Mean motion: 14.20840011 rev/day
Decay rate: 3.11e-06 rev/day^2
Epoch rev: 48334
Checksum: 308
Satellite: AO-51
Catalog number: 28375
Epoch time: 12298.58173835
Element set: 396
Inclination: 098.1645 deg
RA of node: 257.9575 deg
Eccentricity: 0.0084485
Arg of perigee: 009.6017 deg
Mean anomaly: 350.6768 deg
Mean motion: 14.41010063 rev/day
Decay rate: 2.96e-06 rev/day^2
Epoch rev: 43740
Checksum: 336
Satellite: CP3
Catalog number: 31129
Epoch time: 12298.73850900
Element set: 0298
Inclination: 097.8886 deg
RA of node: 298.9250 deg
Eccentricity: 0.0101911
Arg of perigee: 080.3146 deg
Mean anomaly: 280.9520 deg
Mean motion: 14.53274004 rev/day
Decay rate: 1.353e-05 rev/day^2
Epoch rev: 29279
Checksum: 313
Satellite: CO-65
Catalog number: 32785
Epoch time: 12298.77956295
Element set: 0452
Inclination: 097.7829 deg
RA of node: 356.6772 deg
Eccentricity: 0.0014462
Arg of perigee: 004.4936 deg
Mean anomaly: 355.6373 deg
Mean motion: 14.83309434 rev/day
Decay rate: 1.901e-05 rev/day^2
Epoch rev: 24297
Checksum: 355
Satellite: PRISM
Catalog number: 33493
Epoch time: 12299.71272059
Element set: 195
Inclination: 098.1883 deg
RA of node: 083.5903 deg
Eccentricity: 0.0017808
Arg of perigee: 232.3454 deg
Mean anomaly: 127.6148 deg
Mean motion: 14.84626146 rev/day
Decay rate: 5.636e-05 rev/day^2
Epoch rev: 20311
Checksum: 311
Satellite: SOHLA-1
Catalog number: 33496
Epoch time: 12298.90828242
Element set: 868
Inclination: 098.1160 deg
RA of node: 049.8750 deg
Eccentricity: 0.0006751
Arg of perigee: 358.5238 deg
Mean anomaly: 001.5946 deg
Mean motion: 14.70089467 rev/day
Decay rate: 8.71e-06 rev/day^2
Epoch rev: 20130
Checksum: 319
Satellite: SO-67
Catalog number: 35870
Epoch time: 12299.74884382
Element set: 451
Inclination: 097.2206 deg
RA of node: 330.8950 deg
Eccentricity: 0.0003880
Arg of perigee: 077.3323 deg
Mean anomaly: 014.3133 deg
Mean motion: 15.24953726 rev/day
Decay rate: 7.421e-05 rev/day^2
Epoch rev: 17250
Checksum: 308
Satellite: TISAT-1
Catalog number: 36799
Epoch time: 12299.76982952
Element set: 469
Inclination: 098.0537 deg
RA of node: 017.0248 deg
Eccentricity: 0.0015932
Arg of perigee: 107.4610 deg
Mean anomaly: 252.8341 deg
Mean motion: 14.82443120 rev/day
Decay rate: 3.468e-05 rev/day^2
Epoch rev: 12383
Checksum: 319
Satellite: STUDSAT
Catalog number: 36801
Epoch time: 12298.85711081
Element set: 0525
Inclination: 098.0599 deg
RA of node: 017.4748 deg
Eccentricity: 0.0013269
Arg of perigee: 096.0815 deg
Mean anomaly: 264.1914 deg
Mean motion: 14.85669715 rev/day
Decay rate: 9.350e-05 rev/day^2
Epoch rev: 12376
Checksum: 327
Satellite: FO-69
Catalog number: 37227
Epoch time: 12299.47103552
Element set: 0321
Inclination: 071.9717 deg
RA of node: 024.4362 deg
Eccentricity: 0.0015204
Arg of perigee: 076.9960 deg
Mean anomaly: 283.2898 deg
Mean motion: 14.77238056 rev/day
Decay rate: 1.135e-05 rev/day^2
Epoch rev: 05533
Checksum: 312
Satellite: FO-70
Catalog number: 37380
Epoch time: 12299.36318212
Element set: 0321
Inclination: 071.9740 deg
RA of node: 025.3984 deg
Eccentricity: 0.0015723
Arg of perigee: 073.8645 deg
Mean anomaly: 286.4236 deg
Mean motion: 14.76985071 rev/day
Decay rate: 1.115e-05 rev/day^2
Epoch rev: 05520
Checksum: 301
Satellite: ALMASAT-1
Catalog number: 38078
Epoch time: 12299.72991927
Element set: 679
Inclination: 069.4755 deg
RA of node: 020.5788 deg
Eccentricity: 0.0734754
Arg of perigee: 084.6814 deg
Mean anomaly: 283.7609 deg
Mean motion: 14.14353527 rev/day
Decay rate: 2.2506e-04 rev/day^2
Epoch rev: 3597
Checksum: 362
Satellite: XATCOBEO
Catalog number: 38082
Epoch time: 12299.65387383
Element set: 644
Inclination: 069.4819 deg
RA of node: 014.2731 deg
Eccentricity: 0.0682472
Arg of perigee: 081.1908 deg
Mean anomaly: 286.5801 deg
Mean motion: 14.28494160 rev/day
Decay rate: 5.6025e-04 rev/day^2
Epoch rev: 3613
Checksum: 319
/EX
SB KEPS @ AMSAT $ORB12299.W
Orbital Elements 12299.WEATHER
HR AMSAT ORBITAL ELEMENTS FOR WEATHER SATELLITES
FROM WA5QGD FORT WORTH,TX October 25, 2012
BID: ORB12299.W
TO ALL RADIO AMATEURS BT
Satellite: NOAA-10
Catalog number: 16969
Epoch time: 12298.96501302
Element set: 0112
Inclination: 098.5715 deg
RA of node: 325.6455 deg
Eccentricity: 0.0011641
Arg of perigee: 211.5689 deg
Mean anomaly: 148.4797 deg
Mean motion: 14.27587426 rev/day
Decay rate: 7.8e-07 rev/day^2
Epoch rev: 35838
Checksum: 333
Satellite: NOAA-11
Catalog number: 19531
Epoch time: 12298.83076553
Element set: 0104
Inclination: 098.7270 deg
RA of node: 021.2264 deg
Eccentricity: 0.0010489
Arg of perigee: 211.3138 deg
Mean anomaly: 148.7406 deg
Mean motion: 14.14987124 rev/day
Decay rate: 3.3e-07 rev/day^2
Epoch rev: 24284
Checksum: 284
